Date String (YYYY-MM-DD hh:mm:ss) UTC,Instrument flags,Ambient pressure (hPa),Sample flow (lpm),Bypass flow (lpm),Sample temperature (°C),Ambient temperature (°C),ASC tube jacket temperature (°C),LED temperature (°C),Box temperature (°C),Sample RH (%),Span deviation,Mass concentration (μg/m³),Mass concentration (μg/m³),Mass concentration (μg/m³)
DateTimeUTC,F1_M11,P_M11,Q1_M11,Q2_M11,T1_M11,T2_M11,T3_M11,T4_M11,T5_M11,U1_M11,ZSPAN_M11,X0_M11,X2_M11,X1_M11
2022-02-27 15:00:00,,0832.4,5.00,0.00,22.7,22.2,00.0,31.6,24.4,04.7,0000.0,0001.65,0001.28,0001.07
2022-02-27 15:01:00,,0832.4,4.99,0.00,22.7,22.2,00.0,31.6,24.4,04.6,0000.0,0001.70,0001.30,0001.10
2022-02-27 15:02:00,,0832.4,5.00,0.00,22.7,22.1,00.0,31.6,24.4,04.6,0000.0,0001.80,0001.34,0001.14
2022-02-27 15:03:00,,0832.4,5.01,0.00,22.7,22.1,00.0,31.6,24.4,04.7,0000.0,0001.82,0001.36,0001.16
2022-02-27 15:04:00,,0832.5,5.00,0.00,22.7,22.1,00.0,31.6,24.4,04.7,0000.0,0001.84,0001.38,0001.18
2022-02-27 15:05:00,,0832.4,5.00,0.00,22.7,22.1,00.0,31.6,24.4,04.8,0000.0,0001.85,0001.39,0001.19
2022-02-27 15:06:00,,0832.4,5.00,0.00,22.7,22.1,00.0,31.6,24.4,05.3,0000.0,0001.85,0001.42,0001.22
2022-02-27 15:07:00,,0832.5,5.00,0.00,22.7,22.1,00.0,31.6,24.4,05.0,0000.0,0001.87,0001.45,0001.24
2022-02-27 15:08:00,,0832.5,5.00,0.00,22.7,22.1,00.0,31.6,24.4,05.0,0000.0,0001.87,0001.46,0001.27
2022-02-27 15:09:00,,0832.5,5.01,0.00,22.7,22.1,00.0,31.6,24.4,05.0,0000.0,0001.90,0001.48,0001.30
2022-02-27 15:10:00,,0832.5,5.00,0.00,22.7,22.1,00.0,31.6,24.4,04.9,0000.0,0001.92,0001.51,0001.33
2022-02-27 15:11:00,,0832.5,4.99,0.00,22.7,22.0,00.0,31.6,24.4,04.7,0000.0,0001.87,0001.48,0001.32
2022-02-27 15:12:00,,0832.5,4.99,0.00,22.7,22.0,00.0,31.6,24.4,04.7,0000.0,0001.84,0001.47,0001.33
2022-02-27 15:13:00,,0832.5,5.00,0.00,22.7,22.0,00.0,31.6,24.4,04.7,0000.0,0001.80,0001.47,0001.32
2022-02-27 15:14:00,,0832.5,5.01,0.00,22.6,22.0,00.0,31.6,24.4,04.8,0000.0,0001.82,0001.49,0001.32
2022-02-27 15:15:00,,0832.5,5.01,0.00,22.6,22.0,00.0,31.6,24.3,04.9,0000.0,0001.85,0001.51,0001.34
2022-02-27 15:16:00,,0832.5,4.98,0.00,22.6,22.0,00.0,31.6,24.3,04.8,0000.0,0001.85,0001.53,0001.37
2022-02-27 15:17:00,,0832.5,5.01,0.00,22.6,22.0,00.0,31.6,24.3,04.7,0000.0,0001.81,0001.52,0001.37
2022-02-27 15:18:00,,0832.6,5.00,0.00,22.6,22.0,00.0,31.6,24.4,04.7,0000.0,0001.89,0001.51,0001.37
2022-02-27 15:19:00,,0832.7,5.00,0.00,22.6,22.0,00.0,31.6,24.4,04.7,0000.0,0001.94,0001.52,0001.36
2022-02-27 15:20:00,,0832.6,5.00,0.00,22.6,22.0,00.0,31.6,24.4,04.7,0000.0,0001.95,0001.52,0001.36
2022-02-27 15:21:00,,0832.7,5.00,0.00,22.6,22.0,00.0,31.6,24.4,04.9,0000.0,0001.95,0001.52,0001.36
2022-02-27 15:22:00,,0832.6,5.00,0.00,22.6,22.0,00.0,31.6,24.4,05.0,0000.0,0002.00,0001.55,0001.40
2022-02-27 15:23:00,,0832.7,5.00,0.00,22.6,22.0,00.0,31.6,24.4,04.9,0000.0,0002.04,0001.58,0001.41
2022-02-27 15:24:00,,0832.6,5.01,0.00,22.7,22.0,00.0,31.6,24.4,05.1,0000.0,0002.03,0001.60,0001.44
2022-02-27 15:25:00,,0832.6,5.01,0.00,22.7,22.0,00.0,31.6,24.4,04.9,0000.0,0002.06,0001.61,0001.45
2022-02-27 15:26:00,,0832.6,4.98,0.00,22.7,22.0,00.0,31.6,24.4,05.1,0000.0,0002.08,0001.60,0001.43
2022-02-27 15:27:00,,0832.7,5.00,0.00,22.7,22.0,00.0,31.6,24.5,05.6,0000.0,0002.16,0001.61,0001.42
2022-02-27 15:28:00,,0832.7,5.00,0.00,22.7,22.1,00.0,31.6,24.5,05.6,0000.0,0002.19,0001.64,0001.45
2022-02-27 15:29:00,,0832.7,5.01,0.00,22.7,22.1,00.0,31.6,24.5,06.2,0000.0,0002.14,0001.66,0001.48
2022-02-27 15:30:00,,0832.7,4.99,0.00,22.7,22.1,00.0,31.6,24.5,06.2,0000.0,0002.09,0001.68,0001.52
2022-02-27 15:31:00,,0832.7,5.00,0.00,22.7,22.1,00.0,31.6,24.5,06.3,0000.0,0002.15,0001.73,0001.57
2022-02-27 15:32:00,,0832.7,5.00,0.00,22.7,22.1,00.0,31.6,24.5,07.2,0000.0,0002.33,0001.89,0001.70
2022-02-27 15:33:00,,0832.7,5.00,0.00,22.7,22.1,00.0,31.6,24.5,07.7,0000.0,0002.59,0002.10,0001.88
2022-02-27 15:34:00,,0832.7,5.00,0.00,22.7,22.1,00.0,31.6,24.5,07.9,0000.0,0002.77,0002.27,0002.06
2022-02-27 15:35:00,,0832.7,5.00,0.00,22.7,22.1,00.0,31.6,24.5,07.5,0000.0,0002.94,0002.45,0002.24
2022-02-27 15:36:00,,0832.7,5.00,0.00,22.7,22.1,00.0,31.6,24.5,06.5,0000.0,0003.05,0002.56,0002.37
2022-02-27 15:37:00,,0832.8,5.00,0.00,22.8,22.1,00.0,31.7,24.5,06.0,0000.0,0003.14,0002.66,0002.47
2022-02-27 15:38:00,,0832.7,5.00,0.00,22.8,22.1,00.0,31.7,24.5,06.1,0000.0,0003.21,0002.73,0002.54
2022-02-27 15:39:00,,0832.7,5.00,0.00,22.8,22.1,00.0,31.7,24.6,05.8,0000.0,0003.38,0002.82,0002.61
2022-02-27 15:40:00,,0832.7,5.01,0.00,22.8,22.1,00.0,31.7,24.6,05.6,0000.0,0003.46,0002.88,0002.68
2022-02-27 15:41:00,,0832.7,5.00,0.00,22.8,22.2,00.0,31.7,24.6,06.5,0000.0,0003.62,0003.01,0002.80
2022-02-27 15:42:00,,0832.7,4.98,0.00,22.8,22.2,00.0,31.7,24.6,06.6,0000.0,0003.80,0003.12,0002.90
2022-02-27 15:43:00,,0832.7,5.01,0.00,22.8,22.2,00.0,31.7,24.6,06.8,0000.0,0003.83,0003.12,0002.90
2022-02-27 15:44:00,,0832.8,4.99,0.00,22.8,22.2,00.0,31.7,24.7,06.4,0000.0,0003.72,0003.05,0002.83
2022-02-27 15:45:00,,0832.7,5.00,0.00,22.9,22.2,00.0,31.7,24.7,06.1,0000.0,0003.62,0002.97,0002.76
2022-02-27 15:46:00,,0832.7,5.00,0.00,22.9,22.2,00.0,31.7,24.7,06.1,0000.0,0003.53,0002.90,0002.70
2022-02-27 15:47:00,,0832.7,5.00,0.00,22.9,22.2,00.0,31.7,24.7,06.1,0000.0,0003.51,0002.89,0002.69
2022-02-27 15:48:00,,0832.7,5.00,0.00,22.9,22.2,00.0,31.8,24.7,06.3,0000.0,0003.52,0002.90,0002.70
2022-02-27 15:49:00,,0832.7,4.99,0.00,22.9,22.2,00.0,31.8,24.7,06.3,0000.0,0003.63,0002.94,0002.74
2022-02-27 15:50:00,,0832.7,5.00,0.00,22.9,22.2,00.0,31.8,24.7,06.7,0000.0,0003.67,0003.00,0002.78
2022-02-27 15:51:00,,0832.7,5.00,0.00,22.9,22.2,00.0,31.8,24.7,06.9,0000.0,0003.86,0003.07,0002.84
2022-02-27 15:52:00,,0832.7,5.00,0.00,22.9,22.2,00.0,31.8,24.7,06.6,0000.0,0003.87,0003.08,0002.85
2022-02-27 15:53:00,,0832.7,5.00,0.00,22.9,22.2,00.0,31.8,24.7,06.7,0000.0,0004.59,0003.07,0002.87
2022-02-27 15:54:00,,0832.7,5.00,0.00,22.9,22.2,00.0,31.8,24.7,07.1,0000.0,0004.66,0003.08,0002.89
2022-02-27 15:55:00,,0832.7,4.99,0.00,22.9,22.2,00.0,31.8,24.7,07.0,0000.0,0004.71,0003.04,0002.86
2022-02-27 15:56:00,,0832.7,5.01,0.00,22.9,22.2,00.0,31.8,24.7,06.8,0000.0,0004.90,0003.07,0002.85
2022-02-27 15:57:00,,0832.7,5.00,0.00,22.9,22.3,00.0,31.8,24.8,06.9,0000.0,0004.95,0003.08,0002.85
2022-02-27 15:58:00,,0832.7,5.00,0.00,23.0,22.3,00.0,31.8,24.8,06.9,0000.0,0004.98,0003.08,0002.84
2022-02-27 15:59:00,,0832.7,4.99,0.00,23.0,22.3,00.0,31.9,24.8,06.7,0000.0,0005.06,0003.06,0002.80
